Tracking 33723 objects as of 10-Apr-2026
HD Live streaming from Space Station
objects crossing your sky now

TIANQI 23

Track TIANQI 23 now!
10-day predictions


NORAD ID: 57794
Int'l Code: 2023-135C
Perigee: 811.9 km
Apogee: 832.0 km
Inclination: 50.0 °
Period: 101.2 minutes
Semi major axis: 7192 km
RCS: Unknown
Launch date: September 5, 2023
Source: People's Republic of China (PRC)
Launch site: Yellow Sea Launch Area, China (YSLA)
Your satellite tracking list
Your tracking list is empty




NASA's NSSDC Master Catalog

Two Line Element Set (TLE):
1 57794U 23135C   26100.24380796  .00000227  00000-0  16989-3 0  9991
2 57794  49.9722  78.4094 0013935  20.5129 339.6340 14.23120400134956
Source of the keplerian elements: AFSPC